Latest Coastal Weather Observations for Swan Island

IDT60701

Issued at 10:03 am EST Tuesday 26 September 2017 (issued every 10 minutes, with the page automatically refreshed every 10 minutes)

About coastal observations | Map of coastal stations | Coastal observations for TAS | Marine services | Other Formats
Station Details ID: 092123 Name: SWAN ISLAND Lat: -40.73 Lon: 148.12 Height: 15.0 m
Data from the previous 72 hours. | See also: Recent months at Swan Island
Date/Time
EST
Temp
°C
Wind Pressure Rain since
9am
mm
Weather Cloud Vis
km
Sea
Height
m
Swell
Dir  Spd
kts
Gust
kts
hPa Trend Height
m
Period
s
Dir
26/10:00am 12.7 W 8 11 1015.0 - 0.0 - - - - - - -
26/09:30am 11.4 W 8 12 1014.9 - 0.0 - - - - - - -
26/09:00am 10.7 W 9 13 1014.9 - 0.0 - - - - - - -
26/08:30am 10.2 W 9 13 1014.8 - 0.0 - - - - - - -
26/08:00am 8.8 W 8 11 1014.6 - 0.0 - - - - - - -
26/07:30am 8.5 WSW 6 10 1014.2 - 0.0 - - - - - - -
26/07:00am 7.3 WSW 6 9 1013.9 - 0.0 - - - - - - -
26/06:30am 6.1 WSW 6 7 1013.6 - 0.0 - - - - - - -
26/06:00am 5.5 WSW 6 8 1013.3 - 0.0 - - - - - - -
26/05:30am 5.6 WSW 6 7 1012.8 - 0.0 - - - - - - -
26/05:00am 5.4 WSW 5 6 1012.4 - 0.0 - - - - - - -
26/04:30am 5.9 SW 5 8 1012.0 - 0.0 - - - - - - -
26/04:00am 5.9 SW 4 7 1011.7 - 0.0 - - - - - - -
26/03:30am 6.2 WSW 6 9 1011.4 - 0.0 - - - - - - -
26/03:00am 6.0 WSW 7 10 1011.3 - 0.0 - - - - - - -
26/02:30am 6.1 WSW 6 10 1011.0 - 0.0 - - - - - - -
26/02:00am 6.8 WSW 8 11 1010.8 - 0.0 - - - - - - -
26/01:30am 6.4 WSW 8 12 1010.6 - 0.0 - - - - - - -
26/01:00am 6.2 WSW 6 8 1010.6 - 0.0 - - - - - - -
26/12:30am 6.6 WSW 6 8 1010.3 - 0.0 - - - - - - -
26/12:00am 7.1 WSW 8 13 1009.8 - 0.0 - - - - - - -
 
Date/Time
EST
Temp
°C
Wind Pressure Rain since
9am
mm
Weather Cloud Vis
km
Sea
Height
m
Swell
Dir  Spd
kts
Gust
kts
hPa Trend Height
m
Period
s
Dir
25/11:30pm 7.4 WSW 10 16 1009.5 - 0.0 - - - - - - -
25/11:00pm 7.7 WSW 10 16 1009.4 - 0.0 - - - - - - -
25/10:30pm 8.0 WSW 11 18 1009.0 - 0.0 - - - - - - -
25/10:00pm 8.4 WSW 11 17 1008.7 - 0.0 - - - - - - -
25/09:30pm 9.1 WSW 11 17 1008.2 - 0.0 - - - - - - -
25/09:00pm 9.6 WSW 11 23 1007.7 - 0.0 - - - - - - -
25/08:30pm 10.1 WSW 13 19 1007.2 - 0.0 - - - - - - -
25/08:00pm 10.4 W 19 25 1006.5 - 0.0 - - - - - - -
25/07:30pm 10.5 W 18 25 1005.9 - 0.0 - - - - - - -
25/07:00pm 10.7 W 22 30 1005.4 - 0.0 - - - - - - -
25/06:30pm 10.9 W 22 28 1004.8 - 0.0 - - - - - - -
25/06:00pm 10.9 W 22 29 1004.4 - 0.0 - - - - - - -
25/05:30pm 11.4 W 22 30 1004.1 - 0.0 - - - - - - -
25/05:00pm 11.6 W 23 30 1003.7 - 0.0 - - - - - - -
25/04:36pm 11.8 W 22 32 1003.5 - 0.0 - - - - - - -
25/04:30pm 11.8 W 21 28 1003.5 - 0.0 - - - - - - -
25/04:01pm 12.3 W 20 31 1003.1 - 0.0 - - - - - - -
25/04:00pm 12.4 W 20 28 1003.1 - 0.0 - - - - - - -
25/03:36pm 12.7 W 20 31 1002.8 - 0.0 - - - - - - -
25/03:30pm 12.7 W 21 30 1002.7 - 0.0 - - - - - - -
25/03:15pm 12.7 W 19 32 1002.5 - 0.0 - - - - - - -
25/03:00pm 12.7 W 21 29 1002.5 - 0.0 - - - - - - -
25/02:31pm 12.6 W 19 31 1002.1 - 0.0 - - - - - - -
25/02:30pm 12.6 W 19 28 1002.1 - 0.0 - - - - - - -
25/02:00pm 12.9 W 22 33 1001.9 - 0.0 - - - - - - -
25/01:42pm 12.8 W 18 28 1002.0 - 0.0 - - - - - - -
25/01:30pm 12.7 W 23 32 1002.0 - 0.0 - - - - - - -
25/01:03pm 13.1 W 19 29 1001.9 - 0.0 - - - - - - -
25/01:00pm 13.1 W 19 28 1001.9 - 0.0 - - - - - - -
25/12:37pm 12.7 W 22 32 1001.5 - 0.0 - - - - - - -
25/12:30pm 12.7 W 24 32 1001.4 - 0.0 - - - - - - -
25/12:00pm 12.9 W 21 32 1001.0 - 0.0 - - - - - - -
25/11:57am 13.0 W 21 32 1001.0 - 0.0 - - - - - - -
25/11:30am 12.5 W 24 32 1000.8 - 0.0 - - - - - - -
25/11:19am 12.4 W 23 33 1000.5 - 0.0 - - - - - - -
25/11:00am 12.0 W 25 33 1000.6 - 0.0 - - - - - - -
25/10:38am 12.0 W 21 33 1000.5 - 0.0 - - - - - - -
25/10:30am 12.1 W 21 30 1000.3 - 0.0 - - - - - - -
25/10:05am 12.1 W 18 28 1000.4 - 0.0 - - - - - - -
25/10:00am 12.2 W 19 28 1000.7 - 0.0 - - - - - - -
25/09:30am 11.7 W 21 29 1000.7 - 0.0 - - - - - - -
25/09:00am 11.2 W 22 28 1000.4 - 6.6 - - - - - - -
25/08:30am 11.0 W 20 28 999.8 - 6.6 - - - - - - -
25/08:13am 10.8 W 20 30 999.7 - 6.6 - - - - - - -
25/08:00am 10.7 W 22 29 999.3 - 6.6 - - - - - - -
25/07:30am 10.4 W 18 29 999.1 - 6.6 - - - - - - -
25/07:13am 10.4 W 19 29 998.9 - 6.6 - - - - - - -
25/07:00am 10.2 W 20 29 998.6 - 6.6 - - - - - - -
25/06:30am 9.8 W 22 32 997.9 - 6.6 - - - - - - -
25/06:27am 9.9 W 21 32 997.9 - 6.6 - - - - - - -
25/06:00am 9.9 W 22 28 997.5 - 6.6 - - - - - - -
25/05:37am 9.8 W 21 31 996.9 - 6.6 - - - - - - -
25/05:30am 10.0 W 23 31 996.7 - 6.6 - - - - - - -
25/05:01am 9.9 W 20 33 996.0 - 6.6 - - - - - - -
25/05:00am 10.0 W 19 29 996.0 - 6.6 - - - - - - -
25/04:30am 9.9 W 21 32 995.7 - 6.6 - - - - - - -
25/04:00am 10.5 W 17 28 995.3 - 6.6 - - - - - - -
25/03:54am 10.4 W 18 28 995.2 - 6.6 - - - - - - -
25/03:30am 10.7 W 19 26 994.6 - 6.6 - - - - - - -
25/03:00am 11.0 W 16 28 994.2 - 6.6 - - - - - - -
25/02:54am 11.0 W 17 28 994.1 - 6.6 - - - - - - -
25/02:30am 11.0 W 16 24 993.8 - 6.6 - - - - - - -
25/02:00am 11.2 W 16 26 993.5 - 6.6 - - - - - - -
25/01:31am 11.3 WNW 19 30 993.2 - 6.6 - - - - - - -
25/01:30am 11.3 WNW 20 30 993.2 - 6.6 - - - - - - -
25/01:12am 11.3 WNW 21 31 992.8 - 6.6 - - - - - - -
25/01:00am 11.3 WNW 22 31 992.7 - 6.6 - - - - - - -
25/12:43am 11.3 WNW 23 33 992.5 - 6.6 - - - - - - -
25/12:30am 11.4 WNW 22 29 992.3 - 6.6 - - - - - - -
25/12:00am 11.5 WNW 23 29 992.2 - 6.6 - - - - - - -
 
Date/Time
EST
Temp
°C
Wind Pressure Rain since
9am
mm
Weather Cloud Vis
km
Sea
Height
m
Swell
Dir  Spd
kts
Gust
kts
hPa Trend Height
m
Period
s
Dir
24/11:30pm 11.4 WNW 18 23 992.3 - 6.6 - - - - - - -
24/11:00pm 10.9 WNW 17 24 992.6 - 6.6 - - - - - - -
24/10:33pm 10.3 WNW 21 30 992.9 - 5.2 - - - - - - -
24/10:30pm 10.4 WNW 21 30 993.0 - 5.0 - - - - - - -
24/10:05pm 11.6 NW 30 40 992.3 - 4.4 - - - - - - -
24/10:00pm 11.5 NW 31 41 992.3 - 4.4 - - - - - - -
24/09:54pm 11.5 NW 28 41 992.3 - 4.2 - - - - - - -
24/09:30pm 12.0 NW 29 35 992.7 - 3.0 - - - - - - -
24/09:00pm 12.3 NW 27 33 992.9 - 2.8 - - - - - - -
24/08:30pm 12.0 NW 25 34 993.1 - 2.8 - - - - - - -
24/08:14pm 11.8 NW 24 35 993.1 - 2.8 - - - - - - -
24/08:00pm 12.3 NW 24 29 993.0 - 2.8 - - - - - - -
24/07:30pm 12.0 NW 24 29 993.0 - 2.8 - - - - - - -
24/07:00pm 12.1 NW 23 31 993.1 - 2.8 - - - - - - -
24/06:30pm 12.1 NW 24 31 992.8 - 2.8 - - - - - - -
24/06:00pm 12.2 NW 21 28 992.9 - 2.8 - - - - - - -
24/05:30pm 12.1 WNW 19 26 992.7 - 2.8 - - - - - - -
24/05:00pm 11.5 WNW 18 25 992.9 - 2.8 - - - - - - -
24/04:30pm 10.9 WNW 20 27 992.8 - 2.8 - - - - - - -
24/04:00pm 11.2 WNW 23 31 993.0 - 1.8 - - - - - - -
24/03:30pm 11.6 WNW 26 34 992.8 - 1.4 - - - - - - -
24/03:09pm 11.9 WNW 27 41 992.6 - 1.4 - - - - - - -
24/03:00pm 12.5 WNW 25 35 992.8 - 1.4 - - - - - - -
24/02:30pm 12.9 WNW 26 33 992.4 - 1.4 - - - - - - -
24/02:00pm 13.1 WNW 23 31 992.2 - 1.4 - - - - - - -
24/01:30pm 13.2 WNW 25 33 992.3 - 1.4 - - - - - - -
24/01:00pm 12.7 WNW 24 34 992.2 - 1.4 - - - - - - -
24/12:46pm 12.5 NW 24 35 992.2 - 1.4 - - - - - - -
24/12:30pm 12.3 NW 24 31 992.2 - 1.4 - - - - - - -
24/12:00pm 11.3 NW 20 27 992.2 - 1.4 Recent precip. - - - - - -
24/11:30am 10.3 NW 21 32 992.4 - 1.4 - - - - - - -
24/11:00am 10.1 WNW 23 32 992.9 - 1.0 - - - - - - -
24/10:33am 12.6 NW 22 38 992.5 - 0.0 - - - - - - -
24/10:30am 13.0 NW 20 27 992.7 - 0.0 - - - - - - -
24/10:00am 14.3 NW 18 25 992.6 - 0.0 - - - - - - -
24/09:30am 14.1 WNW 21 28 992.5 - 0.0 - - - - - - -
24/09:00am 13.9 WNW 19 26 992.6 - 0.0 - - - - - - -
24/08:30am 13.3 WNW 20 27 992.7 - 0.0 - - - - - - -
24/08:00am 12.8 WNW 20 27 992.9 - 0.0 - - - - - - -
24/07:30am 12.8 WNW 19 26 993.1 - 0.0 - - - - - - -
24/07:00am 12.7 NW 18 25 993.1 - 0.0 - - - - - - -
24/06:30am 12.4 NW 16 23 993.2 - 0.0 - - - - - - -
24/06:00am 12.3 WNW 19 24 993.1 - 0.0 - - - - - - -
24/05:30am 12.2 WNW 20 25 992.7 - 0.0 - - - - - - -
24/05:00am 12.2 WNW 19 25 992.7 - 0.0 - - - - - - -
24/04:30am 12.3 WNW 20 28 992.6 - 0.0 - - - - - - -
24/04:00am 12.6 WNW 18 23 992.5 - 0.0 - - - - - - -
24/03:30am 12.5 WNW 16 22 992.3 - 0.0 - - - - - - -
24/03:00am 12.4 WNW 17 25 992.2 - 0.0 - - - - - - -
24/02:30am 12.5 WNW 19 25 992.2 - 0.0 - - - - - - -
24/02:00am 12.6 WNW 19 25 992.2 - 0.0 - - - - - - -
24/01:30am 12.6 WNW 20 28 992.4 - 0.0 - - - - - - -
24/01:00am 12.8 WNW 20 30 992.4 - 0.0 - - - - - - -
24/12:30am 12.8 WNW 24 31 992.6 - 0.0 - - - - - - -
24/12:00am 12.7 WNW 21 32 992.5 - 0.0 - - - - - - -
 
Date/Time
EST
Temp
°C
Wind Pressure Rain since
9am
mm
Weather Cloud Vis
km
Sea
Height
m
Swell
Dir  Spd
kts
Gust
kts
hPa Trend Height
m
Period
s
Dir
23/11:58pm 12.7 WNW 21 32 992.5 - 0.0 - - - - - - -
23/11:30pm 12.5 WNW 20 25 992.6 - 0.0 - - - - - - -
23/11:00pm 12.3 WNW 18 22 992.7 - 0.0 - - - - - - -
23/10:30pm 12.4 WNW 14 19 992.3 - 0.0 - - - - - - -
23/10:00pm 12.5 WNW 12 16 992.2 - 0.0 - - - - - - -
23/09:30pm 13.1 W 15 19 992.2 - 0.0 - - - - - - -
23/09:00pm 13.0 W 16 23 992.1 - 0.0 - - - - - - -
23/08:30pm 12.8 W 19 26 992.6 - 0.0 - - - - - - -
23/08:08pm 13.5 WSW 19 30 990.9 - 0.0 - - - - - - -
23/08:00pm 13.9 W 23 31 990.9 - 0.0 - - - - - - -
23/07:41pm 14.1 WNW 11 33 989.8 - 0.0 - - - - - - -
23/07:39pm 13.8 WNW 7 23 989.9 - 0.0 - - - - - - -
23/07:30pm 13.9 S 4 6 988.8 - 0.0 - - - - - - -
23/07:00pm 13.1 SE 7 9 987.9 - 0.0 - - - - - - -
23/06:30pm 13.0 SE 6 11 988.4 - 0.0 - - - - - - -
23/06:00pm 13.0 SE 9 11 987.8 - 0.0 - - - - - - -
23/05:30pm 13.2 SE 10 12 988.1 - 0.0 - - - - - - -
23/05:00pm 13.6 SE 8 12 988.5 - 0.0 - - - - - - -
23/04:30pm 13.6 SE 9 11 988.5 - 0.0 - - - - - - -
23/04:00pm 14.5 SE 6 8 989.2 - 0.0 - - - - - - -
23/03:30pm 14.5 ENE 8 10 989.3 - 0.0 - - - - - - -
23/03:00pm 14.7 ENE 9 10 990.0 - 0.0 - - - - - - -
23/02:30pm 14.7 ENE 6 8 990.8 - 0.0 - - - - - - -
23/02:00pm 16.4 E 3 4 991.7 - 0.0 - - - - - - -
23/01:30pm 15.6 ENE 2 4 992.7 - 0.0 - - - - - - -
23/01:00pm 14.6 ENE 3 5 993.9 - 0.0 - - - - - - -
23/12:30pm 15.5 ENE 4 5 994.6 - 0.0 - - - - - - -
23/12:00pm 15.1 ENE 5 7 995.0 - 0.0 - - - - - - -
23/11:30am 17.1 E 4 5 995.5 - 0.0 - - - - - - -
23/11:00am 15.8 ESE 6 7 995.9 - 0.0 - - - - - - -
23/10:30am 14.9 SSE 5 7 996.5 - 0.0 - - - - - - -

Other Formats:

Comma delimited format used in spreadsheet applications
http://www.bom.gov.au/fwo/IDT60701/IDT60701.95985.axf

JavaScript Object Notation format (JSON) in row-major order
http://www.bom.gov.au/fwo/IDT60701/IDT60701.95985.json